TimeCST,TemperatureF,Dew PointF,Humidity,Sea Level PressureIn,VisibilityMPH,Wind Direction,Wind SpeedMPH,Gust SpeedMPH,PrecipitationIn,Events,Conditions,WindDirDegrees,DateUTC
12:15 AM,3.9,0.9,87,29.82,10.0,WSW,3.5,-,N/A,,Scattered Clouds,250,2013-12-19 06:15:00
12:35 AM,8.4,5.9,89,29.83,10.0,West,3.5,-,N/A,,Mostly Cloudy,260,2013-12-19 06:35:00
12:55 AM,7.9,5.4,89,29.84,10.0,West,6.9,-,N/A,,Scattered Clouds,280,2013-12-19 06:55:00
1:15 AM,10.0,7.5,90,29.85,10.0,WNW,5.8,-,N/A,,Clear,290,2013-12-19 07:15:00
1:35 AM,10.9,8.4,90,29.86,10.0,WNW,6.9,-,N/A,,Mostly Cloudy,290,2013-12-19 07:35:00
1:55 AM,13.3,10.8,90,29.88,10.0,West,3.5,-,N/A,,Overcast,270,2013-12-19 07:55:00
2:15 AM,13.1,10.6,90,29.90,10.0,NNW,6.9,-,N/A,,Overcast,330,2013-12-19 08:15:00
2:35 AM,14.0,10.6,86,29.92,10.0,NW,5.8,-,N/A,,Overcast,320,2013-12-19 08:35:00
2:55 AM,15.3,10.0,80,29.92,10.0,North,9.2,-,N/A,,Overcast,350,2013-12-19 08:55:00
3:15 AM,14.4,9.1,80,29.93,10.0,North,5.8,-,N/A,,Overcast,350,2013-12-19 09:15:00
3:35 AM,14.9,8.4,76,29.94,10.0,North,8.1,-,N/A,,Overcast,350,2013-12-19 09:35:00
3:55 AM,14.5,7.7,74,29.95,10.0,North,9.2,-,N/A,,Overcast,360,2013-12-19 09:55:00
4:15 AM,14.4,7.5,74,29.96,10.0,North,4.6,-,N/A,,Overcast,10,2013-12-19 10:15:00
4:35 AM,14.0,7.5,75,29.97,10.0,North,3.5,-,N/A,,Overcast,350,2013-12-19 10:35:00
4:55 AM,14.0,7.5,75,29.99,10.0,North,5.8,-,N/A,,Overcast,350,2013-12-19 10:55:00
5:15 AM,14.0,7.0,74,30.00,10.0,North,9.2,-,N/A,,Overcast,360,2013-12-19 11:15:00
5:35 AM,13.5,6.3,73,30.01,10.0,North,10.4,-,N/A,,Overcast,350,2013-12-19 11:35:00
5:55 AM,12.9,5.5,72,30.03,10.0,North,9.2,-,N/A,,Scattered Clouds,360,2013-12-19 11:55:00
6:15 AM,12.2,4.3,71,30.04,10.0,NNE,11.5,-,N/A,,Clear,20,2013-12-19 12:15:00
6:35 AM,11.3,3.2,70,30.05,10.0,North,13.8,19.6,N/A,,Clear,10,2013-12-19 12:35:00
6:55 AM,10.4,2.3,70,30.07,10.0,North,10.4,18.4,N/A,,Clear,360,2013-12-19 12:55:00
7:15 AM,10.2,2.3,70,30.07,10.0,North,6.9,-,N/A,,Clear,360,2013-12-19 13:15:00
7:35 AM,9.7,1.9,71,30.08,10.0,NNE,10.4,16.1,N/A,,Clear,20,2013-12-19 13:35:00
7:55 AM,8.6,1.4,73,30.08,10.0,North,11.5,-,N/A,,Clear,10,2013-12-19 13:55:00
8:15 AM,8.2,0.9,72,30.10,10.0,NNE,9.2,-,N/A,,Clear,20,2013-12-19 14:15:00
8:35 AM,8.1,0.3,71,30.11,10.0,NNE,11.5,-,N/A,,Clear,30,2013-12-19 14:35:00
8:55 AM,7.7,-0.4,70,30.12,10.0,NNE,8.1,17.3,N/A,,Clear,30,2013-12-19 14:55:00
9:15 AM,7.7,0.1,71,30.13,10.0,NE,6.9,-,N/A,,Clear,40,2013-12-19 15:15:00
9:35 AM,8.1,-0.0,70,30.14,10.0,NNE,6.9,-,N/A,,Clear,20,2013-12-19 15:35:00
9:55 AM,8.4,-0.0,68,30.14,10.0,North,10.4,-,N/A,,Clear,10,2013-12-19 15:55:00
10:15 AM,9.3,1.2,70,30.16,10.0,NE,5.8,-,N/A,,Clear,40,2013-12-19 16:15:00
10:35 AM,9.9,1.4,69,30.17,10.0,NNE,8.1,-,N/A,,Clear,20,2013-12-19 16:35:00
10:55 AM,10.0,1.8,69,30.17,10.0,North,8.1,-,N/A,,Scattered Clouds,10,2013-12-19 16:55:00
11:15 AM,10.4,2.3,70,30.17,10.0,North,6.9,-,N/A,,Scattered Clouds,360,2013-12-19 17:15:00
11:35 AM,11.3,3.0,69,30.17,10.0,NNE,5.8,-,N/A,,Mostly Cloudy,20,2013-12-19 17:35:00
11:55 AM,11.7,3.2,69,30.17,10.0,NNE,5.8,-,N/A,,Mostly Cloudy,20,2013-12-19 17:55:00
12:15 PM,12.0,3.6,69,30.16,10.0,NNE,6.9,-,N/A,,Mostly Cloudy,20,2013-12-19 18:15:00
12:35 PM,12.6,4.1,69,30.15,10.0,North,6.9,-,N/A,,Mostly Cloudy,10,2013-12-19 18:35:00
12:55 PM,12.9,4.5,69,30.14,10.0,NNE,8.1,-,N/A,,Overcast,20,2013-12-19 18:55:00
1:15 PM,13.5,5.4,70,30.13,10.0,NNE,6.9,-,N/A,,Overcast,20,2013-12-19 19:15:00
1:35 PM,14.0,6.1,71,30.13,10.0,NNE,8.1,-,N/A,,Overcast,30,2013-12-19 19:35:00
1:55 PM,14.5,6.8,71,30.12,10.0,NE,9.2,-,N/A,,Overcast,50,2013-12-19 19:55:00
2:15 PM,15.1,7.7,73,30.11,10.0,NE,6.9,-,N/A,,Overcast,50,2013-12-19 20:15:00
2:35 PM,15.4,8.2,73,30.11,10.0,NNE,8.1,16.1,N/A,,Overcast,30,2013-12-19 20:35:00
2:55 PM,15.6,8.8,74,30.11,10.0,NE,8.1,-,N/A,,Overcast,40,2013-12-19 20:55:00
3:15 PM,15.8,9.0,74,30.13,10.0,NNE,5.8,-,N/A,Snow,Light Snow,30,2013-12-19 21:15:00
3:35 PM,16.2,9.0,73,30.14,10.0,NNE,3.5,-,N/A,Snow,Light Snow,20,2013-12-19 21:35:00
3:55 PM,16.2,8.8,73,30.14,10.0,NNE,8.1,-,N/A,,Overcast,30,2013-12-19 21:55:00
4:15 PM,16.2,8.6,72,30.14,10.0,NNE,5.8,-,N/A,,Overcast,20,2013-12-19 22:15:00
4:35 PM,16.3,7.5,68,30.14,10.0,NNE,8.1,-,N/A,,Overcast,20,2013-12-19 22:35:00
4:55 PM,16.0,6.8,67,30.14,10.0,NNE,6.9,-,N/A,,Overcast,20,2013-12-19 22:55:00
5:15 PM,15.8,6.8,68,30.14,10.0,NNE,5.8,-,N/A,,Overcast,20,2013-12-19 23:15:00
5:35 PM,15.4,6.6,68,30.15,10.0,North,5.8,-,N/A,,Overcast,10,2013-12-19 23:35:00
5:55 PM,15.1,6.4,69,30.15,10.0,NNE,6.9,-,N/A,,Overcast,20,2013-12-19 23:55:00
6:15 PM,14.9,5.7,67,30.14,10.0,NNE,6.9,-,N/A,,Overcast,20,2013-12-20 00:15:00
6:35 PM,14.9,5.9,68,30.15,10.0,NNE,6.9,-,N/A,,Overcast,20,2013-12-20 00:35:00
6:55 PM,14.9,6.3,69,30.15,10.0,NNE,6.9,-,N/A,,Overcast,20,2013-12-20 00:55:00
7:15 PM,14.7,5.9,68,30.15,10.0,NNE,6.9,-,N/A,,Overcast,20,2013-12-20 01:15:00
7:35 PM,14.4,5.5,68,30.16,10.0,NNE,5.8,-,N/A,,Overcast,20,2013-12-20 01:35:00
7:55 PM,14.4,6.3,70,30.15,10.0,North,5.8,-,N/A,,Overcast,10,2013-12-20 01:55:00
8:15 PM,14.0,6.3,71,30.15,10.0,North,4.6,-,N/A,,Overcast,10,2013-12-20 02:15:00
8:35 PM,13.1,8.1,80,30.14,4.0,North,5.8,-,N/A,Snow,Light Snow,10,2013-12-20 02:35:00
8:55 PM,12.7,9.5,87,30.14,2.0,North,4.6,-,N/A,Snow,Light Snow,10,2013-12-20 02:55:00
9:15 PM,12.6,9.5,88,30.15,1.5,North,5.8,-,N/A,,Overcast,360,2013-12-20 03:15:00
9:35 PM,12.2,9.5,89,30.14,1.8,North,4.6,-,N/A,Snow,Light Snow,360,2013-12-20 03:35:00
9:55 PM,12.2,9.5,89,30.14,2.5,North,3.5,-,N/A,Snow,Light Snow,10,2013-12-20 03:55:00
10:15 PM,12.4,9.5,88,30.14,1.8,North,4.6,-,N/A,Snow,Light Snow,360,2013-12-20 04:15:00
10:35 PM,12.7,10.0,89,30.14,1.8,North,3.5,-,N/A,Snow,Light Snow,10,2013-12-20 04:35:00
10:55 PM,12.4,9.5,88,30.13,3.0,North,4.6,-,N/A,Snow,Light Snow,10,2013-12-20 04:55:00
11:15 PM,12.2,9.3,88,30.14,2.0,North,3.5,-,N/A,Snow,Light Snow,350,2013-12-20 05:15:00
11:35 PM,11.7,8.6,88,30.13,1.8,NNW,4.6,-,N/A,Snow,Light Snow,330,2013-12-20 05:35:00
11:55 PM,11.8,8.6,87,30.13,2.5,NNW,4.6,-,N/A,Snow,Light Snow,340,2013-12-20 05:55:00